Time,TemperatureF,DewpointF,PressureIn,WindDirection,WindDirectionDegrees,WindSpeedMPH,WindSpeedGustMPH,Humidity,HourlyPrecipIn,Conditions,Clouds,dailyrainin,SoftwareType,DateUTC
2013-05-25 00:02:00,52.0,38.0,30.30,WNW,297,0.0,0.0,59,0.00,,,0.04,,2013-05-25 04:02:00,
2013-05-25 00:13:00,52.0,38.0,30.30,WNW,297,0.0,0.0,59,0.00,,,0.04,,2013-05-25 04:13:00,
2013-05-25 00:23:00,51.0,38.0,30.31,WNW,297,0.0,1.0,60,0.00,,,0.04,,2013-05-25 04:23:00,
2013-05-25 00:33:00,51.0,38.0,30.31,WNW,297,0.0,1.0,61,0.00,,,0.04,,2013-05-25 04:33:00,
2013-05-25 00:43:00,51.0,38.0,30.31,WNW,297,0.0,1.0,61,0.00,,,0.04,,2013-05-25 04:43:00,
2013-05-25 00:53:00,50.0,38.0,30.32,WNW,297,0.0,0.0,62,0.00,,,0.04,,2013-05-25 04:53:00,
2013-05-25 01:02:00,50.0,38.0,30.31,WNW,297,0.0,0.0,63,0.00,,,0.04,,2013-05-25 05:02:00,
2013-05-25 01:12:00,50.0,38.0,30.31,WNW,297,0.0,0.0,63,0.00,,,0.04,,2013-05-25 05:12:00,
2013-05-25 01:22:00,50.0,38.0,30.31,WNW,297,0.0,1.0,64,0.00,,,0.04,,2013-05-25 05:22:00,
2013-05-25 01:32:00,49.0,38.0,30.32,WNW,297,0.0,0.0,65,0.00,,,0.04,,2013-05-25 05:32:00,
2013-05-25 01:43:00,49.0,38.0,30.32,WNW,297,0.0,0.0,65,0.00,,,0.04,,2013-05-25 05:43:00,
2013-05-25 01:52:00,48.0,36.0,30.31,WNW,297,0.0,1.0,63,0.00,,,0.04,,2013-05-25 05:52:00,
2013-05-25 02:02:00,46.0,36.0,30.31,WNW,297,0.0,0.0,68,0.00,,,0.04,,2013-05-25 06:02:00,
2013-05-25 02:12:00,46.0,36.0,30.31,WNW,297,0.0,0.0,68,0.00,,,0.04,,2013-05-25 06:12:00,
2013-05-25 02:22:00,45.0,36.0,30.31,WNW,297,0.0,4.0,70,0.00,,,0.04,,2013-05-25 06:22:00,
2013-05-25 02:32:00,45.0,36.0,30.31,WNW,292,0.0,1.0,71,0.00,,,0.04,,2013-05-25 06:32:00,
2013-05-25 02:42:00,45.0,36.0,30.31,WNW,292,0.0,1.0,71,0.00,,,0.04,,2013-05-25 06:42:00,
2013-05-25 02:52:00,44.0,36.0,30.31,WNW,292,0.0,1.0,72,0.00,,,0.04,,2013-05-25 06:52:00,
2013-05-25 03:01:00,44.0,37.0,30.32,WNW,292,0.0,0.0,75,0.00,,,0.02,,2013-05-25 07:01:00,
2013-05-25 03:11:00,44.0,37.0,30.32,WNW,292,0.0,0.0,75,0.00,,,0.02,,2013-05-25 07:11:00,
2013-05-25 03:22:00,44.0,37.0,30.31,WNW,292,0.0,0.0,76,0.00,,,0.02,,2013-05-25 07:22:00,
2013-05-25 03:32:00,44.0,37.0,30.32,East,84,0.0,2.0,77,0.00,,,0.02,,2013-05-25 07:32:00,
2013-05-25 03:42:00,44.0,37.0,30.32,East,84,0.0,2.0,77,0.00,,,0.02,,2013-05-25 07:42:00,
2013-05-25 03:52:00,43.0,36.0,30.32,East,84,0.0,1.0,77,0.00,,,0.02,,2013-05-25 07:52:00,
2013-05-25 04:02:00,43.0,37.0,30.32,East,84,0.0,0.0,78,0.00,,,0.00,,2013-05-25 08:02:00,
2013-05-25 04:11:00,43.0,37.0,30.32,East,84,0.0,0.0,78,0.00,,,0.00,,2013-05-25 08:11:00,
2013-05-25 04:22:00,43.0,37.0,30.31,East,84,0.0,0.0,80,0.00,,,0.00,,2013-05-25 08:22:00,
2013-05-25 04:32:00,43.0,38.0,30.31,East,84,0.0,1.0,81,0.00,,,0.00,,2013-05-25 08:32:00,
2013-05-25 04:42:00,43.0,38.0,30.31,East,84,0.0,1.0,81,0.00,,,0.00,,2013-05-25 08:42:00,
2013-05-25 04:52:00,43.0,37.0,30.32,ENE,77,0.0,5.0,80,0.00,,,0.00,,2013-05-25 08:52:00,
2013-05-25 05:02:00,43.0,38.0,30.31,ENE,77,0.0,0.0,81,0.00,,,0.00,,2013-05-25 09:02:00,
2013-05-25 05:11:00,43.0,38.0,30.31,ENE,77,0.0,0.0,81,0.00,,,0.00,,2013-05-25 09:11:00,
2013-05-25 05:21:00,43.0,38.0,30.30,ENE,77,0.0,0.0,81,0.00,,,0.00,,2013-05-25 09:21:00,
2013-05-25 05:33:00,43.0,38.0,30.30,ENE,76,0.0,7.0,81,0.00,,,0.00,,2013-05-25 09:33:00,
2013-05-25 05:43:00,43.0,38.0,30.30,ENE,76,0.0,7.0,81,0.00,,,0.00,,2013-05-25 09:43:00,
2013-05-25 05:53:00,44.0,39.0,30.30,ENE,76,0.0,0.0,81,0.00,,,0.00,,2013-05-25 09:53:00,
2013-05-25 06:03:00,44.0,39.0,30.30,East,80,0.0,0.0,81,0.00,,,0.00,,2013-05-25 10:03:00,
2013-05-25 06:12:00,44.0,39.0,30.30,East,80,0.0,0.0,81,0.00,,,0.00,,2013-05-25 10:12:00,
2013-05-25 06:23:00,44.0,39.0,30.30,East,80,0.0,0.0,81,0.00,,,0.00,,2013-05-25 10:23:00,
2013-05-25 06:33:00,44.0,38.0,30.30,WNW,301,0.0,1.0,80,0.00,,,0.00,,2013-05-25 10:33:00,
2013-05-25 06:42:00,44.0,38.0,30.30,WNW,301,0.0,1.0,80,0.00,,,0.00,,2013-05-25 10:42:00,
2013-05-25 06:52:00,45.0,39.0,30.31,NNE,18,0.0,2.0,78,0.00,,,0.00,,2013-05-25 10:52:00,
2013-05-25 07:02:00,45.0,38.0,30.32,NNE,32,0.0,6.0,77,0.00,,,0.00,,2013-05-25 11:02:00,
2013-05-25 07:12:00,45.0,38.0,30.32,NNE,32,0.0,6.0,77,0.00,,,0.00,,2013-05-25 11:12:00,
2013-05-25 07:22:00,46.0,39.0,30.33,NE,38,0.0,2.0,75,0.00,,,0.00,,2013-05-25 11:22:00,
2013-05-25 07:32:00,47.0,39.0,30.34,NNE,23,0.0,3.0,75,0.00,,,0.00,,2013-05-25 11:32:00,
2013-05-25 07:42:00,47.0,39.0,30.34,NNE,23,0.0,3.0,75,0.00,,,0.00,,2013-05-25 11:42:00,
2013-05-25 07:52:00,50.0,41.0,30.33,ENE,64,0.0,2.0,70,0.00,,,0.00,,2013-05-25 11:52:00,
2013-05-25 08:01:00,52.0,41.0,30.35,ENE,64,0.0,1.0,67,0.00,,,0.00,,2013-05-25 12:01:00,
2013-05-25 08:12:00,52.0,41.0,30.35,ENE,64,0.0,1.0,67,0.00,,,0.00,,2013-05-25 12:12:00,
2013-05-25 08:22:00,53.0,39.0,30.36,ENE,64,0.0,1.0,60,0.00,,,0.00,,2013-05-25 12:22:00,
2013-05-25 08:32:00,53.0,40.0,30.35,SW,215,0.0,3.0,61,0.00,,,0.00,,2013-05-25 12:32:00,
2013-05-25 08:42:00,53.0,40.0,30.35,SW,215,0.0,3.0,61,0.00,,,0.00,,2013-05-25 12:42:00,
2013-05-25 08:52:00,54.0,41.0,30.35,SW,220,1.0,4.0,62,0.00,,,0.00,,2013-05-25 12:52:00,
2013-05-25 09:02:00,54.0,41.0,30.36,WSW,251,1.0,5.0,61,0.00,,,0.00,,2013-05-25 13:02:00,
2013-05-25 09:11:00,54.0,41.0,30.36,WSW,251,1.0,5.0,61,0.00,,,0.00,,2013-05-25 13:11:00,
2013-05-25 09:22:00,55.0,40.0,30.36,South,182,1.0,4.0,57,0.00,,,0.00,,2013-05-25 13:22:00,
2013-05-25 09:32:00,55.0,40.0,30.36,South,182,1.0,4.0,57,0.00,,,0.00,,2013-05-25 13:32:00,
2013-05-25 09:42:00,55.0,40.0,30.36,South,182,1.0,4.0,57,0.00,,,0.00,,2013-05-25 13:42:00,
2013-05-25 09:52:00,56.0,41.0,30.36,SW,224,0.0,3.0,56,0.00,,,0.00,,2013-05-25 13:52:00,
2013-05-25 10:02:00,57.0,40.0,30.36,South,185,0.0,4.0,52,0.00,,,0.00,,2013-05-25 14:02:00,
2013-05-25 10:11:00,57.0,40.0,30.36,South,185,0.0,4.0,52,0.00,,,0.00,,2013-05-25 14:11:00,
2013-05-25 10:22:00,58.0,39.0,30.36,SSE,158,1.0,3.0,50,0.00,,,0.00,,2013-05-25 14:22:00,
2013-05-25 10:32:00,58.0,39.0,30.36,SSE,152,0.0,3.0,50,0.00,,,0.00,,2013-05-25 14:32:00,
2013-05-25 10:42:00,58.0,39.0,30.36,SSE,152,0.0,3.0,50,0.00,,,0.00,,2013-05-25 14:42:00,
2013-05-25 10:52:00,60.0,40.0,30.35,SW,234,1.0,5.0,48,0.00,,,0.00,,2013-05-25 14:52:00,
2013-05-25 11:01:00,60.0,40.0,30.35,WSW,239,0.0,7.0,47,0.00,,,0.00,,2013-05-25 15:01:00,
2013-05-25 11:12:00,60.0,40.0,30.35,WSW,239,0.0,7.0,47,0.00,,,0.00,,2013-05-25 15:12:00,
2013-05-25 11:22:00,61.0,41.0,30.35,SSW,208,1.0,5.0,47,0.00,,,0.00,,2013-05-25 15:22:00,
2013-05-25 11:33:00,63.0,41.0,30.35,WNW,290,0.0,7.0,44,0.00,,,0.00,,2013-05-25 15:33:00,
2013-05-25 11:43:00,63.0,41.0,30.35,WNW,290,0.0,7.0,44,0.00,,,0.00,,2013-05-25 15:43:00,
2013-05-25 11:53:00,63.0,41.0,30.35,West,264,1.0,6.0,45,0.00,,,0.00,,2013-05-25 15:53:00,
2013-05-25 12:03:00,63.0,40.0,30.34,WSW,239,2.0,7.0,43,0.00,,,0.00,,2013-05-25 16:03:00,
2013-05-25 12:12:00,63.0,40.0,30.34,WSW,239,2.0,7.0,43,0.00,,,0.00,,2013-05-25 16:12:00,
2013-05-25 12:23:00,64.0,41.0,30.35,West,259,1.0,7.0,43,0.00,,,0.00,,2013-05-25 16:23:00,
2013-05-25 12:33:00,64.0,40.0,30.34,WNW,290,1.0,6.0,41,0.00,,,0.00,,2013-05-25 16:33:00,
2013-05-25 12:42:00,64.0,40.0,30.34,WNW,290,1.0,6.0,41,0.00,,,0.00,,2013-05-25 16:42:00,
2013-05-25 12:52:00,65.0,41.0,30.33,SW,236,1.0,8.0,41,0.00,,,0.00,,2013-05-25 16:52:00,
2013-05-25 13:03:00,65.0,41.0,30.33,WNW,297,1.0,5.0,41,0.00,,,0.00,,2013-05-25 17:03:00,
2013-05-25 13:11:00,65.0,41.0,30.33,WNW,297,1.0,5.0,41,0.00,,,0.00,,2013-05-25 17:11:00,
2013-05-25 13:22:00,65.0,40.0,30.32,WNW,287,1.0,8.0,40,0.00,,,0.00,,2013-05-25 17:22:00,
2013-05-25 13:32:00,67.0,41.0,30.32,NW,325,1.0,5.0,39,0.00,,,0.00,,2013-05-25 17:32:00,
2013-05-25 13:42:00,67.0,41.0,30.32,NW,325,1.0,5.0,39,0.00,,,0.00,,2013-05-25 17:42:00,
2013-05-25 13:52:00,67.0,41.0,30.31,NE,47,1.0,8.0,38,0.00,,,0.00,,2013-05-25 17:52:00,
2013-05-25 14:02:00,68.0,39.0,30.32,WNW,288,1.0,6.0,35,0.00,,,0.00,,2013-05-25 18:02:00,
2013-05-25 14:11:00,68.0,39.0,30.32,WNW,288,1.0,6.0,35,0.00,,,0.00,,2013-05-25 18:11:00,
2013-05-25 14:22:00,68.0,40.0,30.32,NW,325,1.0,6.0,36,0.00,,,0.00,,2013-05-25 18:22:00,
2013-05-25 14:32:00,68.0,39.0,30.31,NNW,329,1.0,6.0,35,0.00,,,0.00,,2013-05-25 18:32:00,
2013-05-25 14:42:00,68.0,39.0,30.31,NNW,329,1.0,6.0,35,0.00,,,0.00,,2013-05-25 18:42:00,
2013-05-25 14:52:00,68.0,40.0,30.30,ESE,108,0.0,5.0,36,0.00,,,0.00,,2013-05-25 18:52:00,
2013-05-25 15:02:00,68.0,40.0,30.29,West,281,1.0,4.0,36,0.00,,,0.00,,2013-05-25 19:02:00,
2013-05-25 15:11:00,68.0,40.0,30.29,West,281,1.0,4.0,36,0.00,,,0.00,,2013-05-25 19:11:00,
2013-05-25 15:22:00,69.0,39.0,30.29,East,88,0.0,3.0,33,0.00,,,0.00,,2013-05-25 19:22:00,
2013-05-25 15:32:00,70.0,40.0,30.28,WNW,299,4.0,8.0,33,0.00,,,0.00,,2013-05-25 19:32:00,
2013-05-25 15:42:00,70.0,40.0,30.28,WNW,299,4.0,8.0,33,0.00,,,0.00,,2013-05-25 19:42:00,
2013-05-25 15:52:00,70.0,40.0,30.28,West,275,3.0,9.0,33,0.00,,,0.00,,2013-05-25 19:52:00,
2013-05-25 16:02:00,70.0,40.0,30.27,NNW,333,0.0,6.0,33,0.00,,,0.00,,2013-05-25 20:02:00,
2013-05-25 16:11:00,70.0,40.0,30.27,NNW,333,0.0,6.0,33,0.00,,,0.00,,2013-05-25 20:11:00,
2013-05-25 16:22:00,70.0,40.0,30.27,WNW,300,2.0,6.0,33,0.00,,,0.00,,2013-05-25 20:22:00,
2013-05-25 16:32:00,71.0,40.0,30.26,WNW,299,2.0,6.0,33,0.00,,,0.00,,2013-05-25 20:32:00,
2013-05-25 16:42:00,71.0,40.0,30.26,WNW,299,2.0,6.0,33,0.00,,,0.00,,2013-05-25 20:42:00,
2013-05-25 16:52:00,71.0,40.0,30.26,WNW,294,2.0,5.0,33,0.00,,,0.00,,2013-05-25 20:52:00,
2013-05-25 17:02:00,70.0,40.0,30.26,NW,314,3.0,7.0,34,0.00,,,0.00,,2013-05-25 21:02:00,
2013-05-25 17:11:00,70.0,40.0,30.26,NW,314,3.0,7.0,34,0.00,,,0.00,,2013-05-25 21:11:00,
2013-05-25 17:22:00,69.0,39.0,30.25,WNW,284,0.0,3.0,34,0.00,,,0.00,,2013-05-25 21:22:00,
2013-05-25 17:33:00,70.0,40.0,30.24,West,281,0.0,7.0,33,0.00,,,0.00,,2013-05-25 21:33:00,
2013-05-25 17:43:00,70.0,40.0,30.24,West,281,0.0,7.0,33,0.00,,,0.00,,2013-05-25 21:43:00,
2013-05-25 17:53:00,70.0,40.0,30.24,NW,306,3.0,8.0,34,0.00,,,0.00,,2013-05-25 21:53:00,
2013-05-25 18:03:00,69.0,39.0,30.23,SW,229,1.0,5.0,34,0.00,,,0.00,,2013-05-25 22:03:00,
2013-05-25 18:13:00,69.0,39.0,30.23,SW,229,1.0,5.0,34,0.00,,,0.00,,2013-05-25 22:13:00,
2013-05-25 18:23:00,69.0,39.0,30.23,WNW,294,1.0,7.0,34,0.00,,,0.00,,2013-05-25 22:23:00,
2013-05-25 18:33:00,69.0,41.0,30.23,NNW,346,1.0,6.0,36,0.00,,,0.00,,2013-05-25 22:33:00,
2013-05-25 18:42:00,69.0,41.0,30.23,NNW,346,1.0,6.0,36,0.00,,,0.00,,2013-05-25 22:42:00,
2013-05-25 18:52:00,69.0,40.0,30.22,WNW,299,1.0,7.0,35,0.00,,,0.00,,2013-05-25 22:52:00,
2013-05-25 19:02:00,69.0,40.0,30.22,NW,320,0.0,4.0,35,0.00,,,0.00,,2013-05-25 23:02:00,
2013-05-25 19:12:00,69.0,40.0,30.22,NW,320,0.0,4.0,35,0.00,,,0.00,,2013-05-25 23:12:00,
2013-05-25 19:22:00,68.0,40.0,30.22,NNW,327,0.0,3.0,36,0.00,,,0.00,,2013-05-25 23:22:00,
2013-05-25 19:32:00,68.0,40.0,30.21,NNW,332,0.0,2.0,36,0.00,,,0.00,,2013-05-25 23:32:00,
2013-05-25 19:42:00,68.0,40.0,30.21,NNW,332,0.0,2.0,36,0.00,,,0.00,,2013-05-25 23:42:00,
2013-05-25 19:52:00,68.0,41.0,30.21,ENE,65,1.0,4.0,37,0.00,,,0.00,,2013-05-25 23:52:00,
2013-05-25 20:02:00,67.0,40.0,30.21,NNW,335,0.0,2.0,37,0.00,,,0.00,,2013-05-26 00:02:00,
2013-05-25 20:11:00,67.0,40.0,30.21,NNW,335,0.0,2.0,37,0.00,,,0.00,,2013-05-26 00:11:00,
2013-05-25 20:22:00,67.0,40.0,30.21,WNW,286,1.0,6.0,37,0.00,,,0.00,,2013-05-26 00:22:00,
2013-05-25 20:32:00,67.0,41.0,30.22,NNW,340,0.0,2.0,38,0.00,,,0.00,,2013-05-26 00:32:00,
2013-05-25 20:42:00,67.0,41.0,30.22,NNW,340,0.0,2.0,38,0.00,,,0.00,,2013-05-26 00:42:00,
2013-05-25 20:52:00,66.0,40.0,30.22,NNE,19,0.0,2.0,38,0.00,,,0.00,,2013-05-26 00:52:00,
2013-05-25 21:01:00,66.0,40.0,30.22,NNE,19,0.0,1.0,38,0.00,,,0.00,,2013-05-26 01:01:00,
2013-05-25 21:11:00,66.0,40.0,30.22,NNE,19,0.0,1.0,38,0.00,,,0.00,,2013-05-26 01:11:00,
2013-05-25 21:21:00,65.0,39.0,30.22,East,86,0.0,3.0,39,0.00,,,0.00,,2013-05-26 01:21:00,
2013-05-25 21:32:00,65.0,41.0,30.22,ENE,71,0.0,3.0,41,0.00,,,0.00,,2013-05-26 01:32:00,
2013-05-25 21:42:00,65.0,41.0,30.22,ENE,71,0.0,3.0,41,0.00,,,0.00,,2013-05-26 01:42:00,
2013-05-25 22:21:00,62.0,40.0,30.23,ENE,77,0.0,2.0,45,0.00,,,0.00,,2013-05-26 02:21:00,
2013-05-25 22:32:00,61.0,40.0,30.24,ENE,77,0.0,0.0,46,0.00,,,0.00,,2013-05-26 02:32:00,
2013-05-25 22:42:00,61.0,40.0,30.24,ENE,77,0.0,0.0,46,0.00,,,0.00,,2013-05-26 02:42:00,
2013-05-25 22:52:00,61.0,41.0,30.24,ENE,77,0.0,0.0,47,0.00,,,0.00,,2013-05-26 02:52:00,
2013-05-25 23:01:00,60.0,40.0,30.25,ENE,77,0.0,2.0,47,0.00,,,0.00,,2013-05-26 03:01:00,
2013-05-25 23:11:00,60.0,40.0,30.25,ENE,77,0.0,2.0,47,0.00,,,0.00,,2013-05-26 03:11:00,
2013-05-25 23:22:00,60.0,40.0,30.25,ENE,77,0.0,2.0,47,0.00,,,0.00,,2013-05-26 03:22:00,
2013-05-25 23:33:00,59.0,39.0,30.26,ESE,107,0.0,3.0,47,0.00,,,0.00,,2013-05-26 03:33:00,
2013-05-25 23:43:00,59.0,39.0,30.26,ESE,107,0.0,3.0,47,0.00,,,0.00,,2013-05-26 03:43:00,
2013-05-25 23:53:00,58.0,38.0,30.26,ESE,112,0.0,2.0,48,0.00,,,0.00,,2013-05-26 03:53:00,